| time (UTC) | temp C | wind direction | speed KPH | gust KPH | rain 1hr cm | rain 24hr cm | rain mn cm | humidity % | barometer mb |
| 20260905220110 | 0 | 0.0 | 0.0 | 0.00 | 0.84 | 0.84 | 1 | 1018.8 | |
| 20260905212110 | 0 | 0.0 | 0.0 | 0.00 | 0.91 | 0.84 | 1 | 1018.5 | |
| 20260905204110 | 0 | 0.0 | 0.0 | 0.00 | 0.91 | 0.84 | 1 | 1018.3 | |
| 20260905202110 | 0 | 0.0 | 0.0 | 0.00 | 0.91 | 0.84 | 1 | 1018.0 | |
| 20260905200111 | 0 | 0.0 | 0.0 | 0.00 | 0.91 | 0.84 | 1 | 1017.8 | |
| 20260905194110 | 0 | 0.0 | 0.0 | 0.00 | 0.91 | 0.84 | 1 | 1017.7 | |
| 20260905190110 | 0 | 0.0 | 0.0 | 0.00 | 0.91 | 0.84 | 1 | 1017.4 | |
| 20260905184110 | 0 | 0.0 | 0.0 | 0.00 | 0.91 | 0.84 | 1 | 1017.1 | |
| 20260905182110 | 0 | 0.0 | 0.0 | 0.00 | 0.91 | 0.84 | 1 | 1017.1 | |
| 20260905180111 | 0 | 0.0 | 0.0 | 0.08 | 0.91 | 0.84 | 1 | 1017.0 | |
| 20260905174110 | 0 | 0.0 | 0.0 | 0.08 | 0.91 | 0.84 | 1 | 1016.7 | |
| 20260905172110 | 0 | 0.0 | 0.0 | 0.08 | 0.99 | 0.84 | 1 | 1016.4 | |
| 20260905164110 | 0 | 0.0 | 0.0 | 0.15 | 1.35 | 0.76 | 1 | 1016.2 | |
| 20260905160110 | 24 | 0.0 | 0.0 | 0.00 | 1.19 | 0.64 | 99 | 1016.0 | |
| 20260905154111 | 24 | 0.0 | 0.0 | 0.28 | 1.19 | 0.64 | 99 | 1015.3 | |
| 20260905152110 | 24 | 0.0 | 0.0 | 0.28 | 1.19 | 0.64 | 99 | 1015.5 | |
| 20260905150111 | 24 | 0.0 | 0.0 | 0.28 | 1.19 | 0.64 | 99 | 1015.6 | |
| 20260905142110 | 24 | 0.0 | 0.0 | 0.00 | 0.91 | 0.36 | 99 | 1015.3 | |
| 20260905140111 | 24 | 0.0 | 0.0 | 0.00 | 0.91 | 0.36 | 99 | 1015.3 | |
| 20260905134110 | 24 | 0.0 | 0.0 | 0.00 | 0.91 | 0.36 | 99 | 1015.2 | |
| 20260905132110 | 24 | 0.0 | 0.0 | 0.00 | 0.91 | 0.36 | 99 | 1015.0 | |
| 20260905130110 | 22 | 0.0 | 0.0 | 0.00 | 0.91 | 0.36 | 99 | 1014.9 | |
| 20260905122111 | 0 | 0.0 | 0.0 | 0.00 | 0.91 | 0.36 | 1 | 1014.8 | |
| 20260905120110 | 30 | 0.0 | 0.0 | 0.36 | 0.91 | 0.36 | 1 | 1015.0 | |
| 20260905114110 | 23 | 0.0 | 0.0 | 0.36 | 0.91 | 0.36 | 76 | 1015.3 | |
| 20260905112111 | 16 | 0.0 | 0.0 | 0.36 | 0.91 | 0.36 | 99 | 1015.4 | |
| 20260905110110 | 18 | 0.0 | 0.0 | 0.00 | 0.56 | 0.00 | 20 | 1015.6 | |
| 20260905104110 | 20 | 0.0 | 0.0 | 0.00 | 0.56 | 0.00 | 40 | 1015.0 | |
| 20260905102110 | 24 | 0.0 | 0.0 | 0.00 | 0.56 | 0.00 | 1 | 1015.0 | |
| 20260905100110 | 24 | 0.0 | 0.0 | 0.00 | 0.56 | 0.00 | 1 | 1014.7 | |
| 20260905092110 | 26 | 0.0 | 0.0 | 0.00 | 0.56 | 0.00 | 1 | 1014.7 | |
| 20260905090110 | 24 | 0.0 | 0.0 | 0.00 | 0.56 | 0.00 | 99 | 1014.6 | |
| 20260905084111 | 24 | 0.0 | 0.0 | 0.00 | 0.56 | 0.00 | 99 | 1014.4 | |
| 20260905082112 | 39 | 0.0 | 0.0 | 0.00 | 0.56 | 0.00 | 58 | 1014.3 | |
| 20260905080110 | 24 | 0.0 | 0.0 | 0.00 | 0.56 | 0.00 | 99 | 1014.1 | |
| 20260905074111 | 24 | 0.0 | 0.0 | 0.00 | 0.56 | 0.00 | 99 | 1013.9 | |
| 20260905072110 | 24 | 0.0 | 0.0 | 0.00 | 0.56 | 0.00 | 99 | 1013.9 | |
| 20260905064111 | 24 | 0.0 | 0.0 | 0.00 | 0.56 | 0.00 | 99 | 1013.5 | |
| 20260905062110 | 24 | 0.0 | 0.0 | 0.00 | 0.56 | 0.00 | 99 | 1013.2 | |
| 20260905060111 | 24 | 0.0 | 0.0 | 0.00 | 0.56 | 0.00 | 99 | 1013.1 | |
| 20260905052109 | 24 | 0.0 | 0.0 | 0.00 | 0.56 | 0.00 | 99 | 1012.7 | |
| 20260905050111 | 24 | 0.0 | 0.0 | 0.00 | 0.56 | 0.00 | 99 | 1012.5 | |
| 20260905042110 | 24 | 0.0 | 0.0 | 0.00 | 0.56 | 0.00 | 99 | 1012.0 | |
| 20260905040109 | 24 | 0.0 | 0.0 | 0.00 | 0.56 | 0.00 | 99 | 1011.8 | |
| 20260905034110 | 24 | 0.0 | 0.0 | 0.00 | 0.56 | 0.00 | 99 | 1011.6 | |
| 20260905032111 | 0 | 0.0 | 0.0 | 0.00 | 0.56 | 0.00 | 1 | 1011.5 | |
| 20260905030111 | 0 | 0.0 | 0.0 | 0.00 | 0.56 | 0.00 | 1 | 1011.1 | |
| 20260905024111 | 0 | 0.0 | 0.0 | 0.00 | 0.56 | 0.00 | 1 | 1011.0 | |
| 20260905022111 | 0 | 0.0 | 0.0 | 0.00 | 0.56 | 0.00 | 1 | 1011.0 | |
| 20260905020110 | 0 | 0.0 | 0.0 | 0.00 | 0.56 | 0.00 | 1 | 1010.9 | |
| 20260905014110 | 0 | 0.0 | 0.0 | 0.00 | 0.56 | 0.00 | 1 | 1010.5 | |
| 20260905012110 | 0 | 0.0 | 0.0 | 0.00 | 0.56 | 0.00 | 1 | 1010.5 | |
| 20260905010110 | 0 | 0.0 | 0.0 | 0.00 | 0.56 | 0.00 | 1 | 1010.5 | |
| 20260905002110 | 0 | 0.0 | 0.0 | 0.00 | 0.56 | 0.00 | 1 | 1009.6 | |
| 20260905000111 | 0 | 0.0 | 0.0 | 0.00 | 0.56 | 0.00 | 1 | 1009.6 | |
| 20260904234111 | 0 | 0.0 | 0.0 | 0.00 | 0.56 | 0.00 | 1 | 1009.5 | |
| 20260904232111 | 0 | 0.0 | 0.0 | 0.00 | 0.56 | 0.00 | 1 | 1009.2 | |
| 20260904230110 | 0 | 0.0 | 0.0 | 0.00 | 0.56 | 0.00 | 1 | 1008.8 | |
| 20260904224111 | 0 | 0.0 | 0.0 | 0.00 | 0.56 | 0.00 | 1 | 1008.6 |